Location: PSU-Greenbush Astrophysical Observatory
(37.5140°N, 94.9880°W)
Time: 12:58:49
(UTC-06:00)

deb Explorer IX - Pass Details

Date: 29 January 2020
Orbit: 549 x 1099 km, 38.8° (Epoch: 17 February)

Event Time Altitude Azimuth Distance (km) Brightness Sun altitude
Rises 00:20:11 0° 283° (WNW) 3,833 - -70.3°
Reaches altitude 10° 00:22:52 10° 282° (WNW) 2,914 - -70.4°
Maximum altitude 00:30:09 82° 196° (SSW) 1,109 - -70.5°
Drops below altitude 10° 00:37:20 10° 110° (ESE) 2,885 - -70.5°
Sets 00:39:59 0° 110° (ESE) 3,793 - -70.5°
